This demonstration page uses our WeatherBlox Daily Observations layout. Learn more.

Left ArrowRight Arrow

39.12711, -84.51439

Hourly Observations for July 27, 2017

Temp ( °F °C ) Dew Point ( °F °C ) Humidity (%) Winds ( mph kmh ) Pressure ( in mb ) Visibility ( mi km ) Precip ( " mm )
12:53 am 00:53 Mostly Cloudy 72 22.2 72 22.2 100 100 N N/A 29.99 1016 10 16 N/A
1:53 am 01:53 Mostly Clear 72 22.2 71 21.7 97 97 N N/A 29.97 1015 9 14 N/A
2:53 am 02:53 Clear 72 22.2 71 21.7 97 97 N N/A 29.96 1015 9 14 N/A
3:53 am 03:53 Clear 71 21.7 71 21.7 100 100 N N/A 29.95 1014 8 13 N/A
4:53 am 04:53 Clear 70 21.1 70 21.1 100 100 N N/A 29.94 1014 7 11 N/A
5:53 am 05:53 Clear 71 21.7 71 21.7 100 100 N N/A 29.94 1014 9 14 N/A
6:53 am 06:53 Partly Cloudy with Mist and Fog 71 21.7 71 21.7 100 100 N N/A 29.95 1014 6 10 N/A
7:08 am 07:08 Partly Cloudy with Light Rain 72 22.2 71 21.7 97 97 WSW 18 30 29.97 1015 2 3 0.05 1.27
7:11 am 07:11 Cloudy with Strong Thunderstorms 72 22.2 71 21.7 97 97 SW 22 35 29.94 1014 2 3 0.09 2.29
7:18 am 07:18 Mostly Cloudy with Strong Thunderstorms 72 22.2 70 21.1 94 94 SW 6 9 29.94 1014 2 3 0.20 5.08
7:23 am 07:23 Cloudy with Thunderstorms 72 22.2 71 21.7 97 97 WSW 7 11 29.94 1014 4 6 0.27 6.86
7:37 am 07:37 Mostly Cloudy with Light Rain 72 22.2 71 21.7 97 97 S 7 11 29.94 1014 6 10 0.42 10.67
7:53 am 07:53 Mostly Cloudy 72 22.2 71 21.7 97 97 SSW 7 11 29.96 1015 10 16 0.49 12.45
8:53 am 08:53 Mostly Cloudy 73 22.8 73 22.8 100 100 N N/A 29.96 1014 9 14 N/A
9:53 am 09:53 Partly Cloudy 75 23.9 73 22.8 94 94 SW 5 7 29.95 1014 10 16 N/A
10:53 am 10:53 Partly Cloudy 77 25 76 24.4 96 96 N N/A 29.95 1014 10 16 N/A
11:53 am 11:53 Partly Cloudy 80 26.7 76 24.4 87 87 WSW 5 7 29.95 1014 10 16 N/A
12:53 pm 12:53 Mostly Cloudy 82 27.8 75 23.9 79 79 VRB 5 7 29.93 1014 10 16 N/A
1:53 pm 13:53 Mostly Cloudy 85 29.4 75 23.9 72 72 WSW 6 9 29.91 1013 10 16 N/A
2:53 pm 14:53 Mostly Sunny 86 30 72 22.2 63 63 WNW 9 15 29.89 1012 10 16 N/A
3:53 pm 15:53 Partly Cloudy 87 30.6 72 22.2 61 61 W 13 20 29.88 1012 10 16 N/A
4:53 pm 16:53 Cloudy 83 28.3 71 21.7 67 67 W 13 20 29.87 1011 10 16 N/A
5:53 pm 17:53 Mostly Cloudy 84 28.9 71 21.7 65 65 WNW 8 13 29.85 1011 10 16 N/A
6:53 pm 18:53 Mostly Cloudy 84 28.9 71 21.7 65 65 NW 9 15 29.85 1011 10 16 N/A
7:53 pm 19:53 Cloudy with Rain 77 25 73 22.8 88 88 NNW 15 24 29.87 1011 5 8 0.01 0.25
8:11 pm 20:11 Cloudy with Heavy Rain 75 23.9 74 23.3 96 96 NW 10 17 29.88 1012 2 3 0.06 1.52
8:23 pm 20:23 Cloudy with Rain 75 23.9 73 22.8 94 94 NW 9 15 29.88 1012 3 5 0.11 2.79
8:53 pm 20:53 Cloudy with Light Rain 75 23.9 73 22.8 94 94 NW 5 7 29.87 1012 7 11 0.13 3.30
9:53 pm 21:53 Cloudy with Mist and Fog 73 22.8 73 22.8 100 100 N N/A 29.86 1011 4 6 0.02 0.51
10:53 pm 22:53 Cloudy 74 23.3 74 23.3 100 100 N N/A 29.86 1011 10 16 N/A
11:53 pm 23:53 Cloudy 73 22.8 73 22.8 100 100 N N/A 29.85 1011 10 16 N/A

Powered by AerisWeather